This demonstration page uses our WeatherBlox Daily Observations layout. Learn more.

Left ArrowRight Arrow

34.74481, -87.66753

Hourly Observations for January 15, 2022

Temp ( °F °C ) Dew Point ( °F °C ) Humidity (%) Winds ( mph kmh ) Pressure ( in mb ) Visibility ( mi km ) Precip ( " mm )
12:53 am 00:53 Mostly Cloudy 42 5.6 39 3.9 89 89 E 5 7 29.99 1016 10 16 0.00 0.00
1:53 am 01:53 Mostly Cloudy 44 6.7 37 2.8 76 76 SE 5 7 29.99 1016 10 16 0.00 0.00
2:53 am 02:53 Cloudy 43 6.1 38 3.3 82 82 Calm 29.99 1016 10 16 0.00 0.00
3:53 am 03:53 Cloudy 43 6.1 38 3.3 82 82 Calm 29.99 1016 10 16 0.00 0.00
4:53 am 04:53 Cloudy 43 6.1 37 2.8 80 80 ESE 5 7 30.00 1016 10 16 0.00 0.00
5:53 am 05:53 Cloudy 44 6.7 37 2.8 76 76 E 8 13 30.00 1016 10 16 0.00 0.00
6:53 am 06:53 Cloudy 45 7.2 36 2.2 71 71 ESE 7 11 30.01 1016 10 16 0.00 0.00
7:53 am 07:53 Cloudy 45 7.2 36 2.2 71 71 ESE 10 17 30.03 1017 10 16 0.00 0.00
8:53 am 08:53 Cloudy 47 8.3 36 2.2 66 66 ESE 8 13 30.02 1017 10 16 0.00 0.00
9:53 am 09:53 Cloudy 49 9.4 36 2.2 61 61 SE 9 15 30.02 1017 10 16 0.00 0.00
10:53 am 10:53 Cloudy 49 9.4 36 2.2 61 61 ESE 17 28 30.01 1016 10 16 0.00 0.00
11:53 am 11:53 Cloudy 48 8.9 37 2.8 66 66 E 15 24 29.96 1015 10 16 0.00 0.00
12:53 pm 12:53 Cloudy 48 8.9 37 2.8 66 66 E 13 20 29.92 1013 10 16 0.00 0.00
1:53 pm 13:53 Cloudy 48 8.9 37 2.8 66 66 E 15 24 29.89 1012 10 16 0.00 0.00
2:53 pm 14:53 Cloudy with Light Rain 47 8.3 39 3.9 74 74 E 15 24 29.89 1012 10 16 0.00 0.00
3:53 pm 15:53 Cloudy with Light Rain 46 7.8 41 5 83 83 E 9 15 29.89 1012 10 16 0.00 0.00
4:53 pm 16:53 Cloudy with Light Rain 45 7.2 41 5 86 86 E 12 19 29.87 1011 8 13 0.02 0.51
5:53 pm 17:53 Cloudy with Rain 45 7.2 41 5 86 86 ENE 12 19 29.88 1012 6 10 0.07 1.78
6:53 pm 18:53 Cloudy with Rain 45 7.2 42 5.6 90 90 E 12 19 29.88 1012 6 10 0.16 4.06
7:53 pm 19:53 Cloudy with Rain 45 7.2 41 5 86 86 ENE 14 22 29.86 1011 5 8 0.11 2.79
8:53 pm 20:53 Cloudy with Rain 44 6.7 41 5 89 89 E 14 22 29.83 1010 6 10 0.10 2.54
9:53 pm 21:53 Cloudy with Light Rain 44 6.7 41 5 89 89 E 13 20 29.82 1010 7 11 0.08 2.03
10:53 pm 22:53 Cloudy with Light Rain 44 6.7 40 4.4 85 85 ENE 14 22 29.79 1009 6 10 0.08 2.03
11:49 pm 23:49 Cloudy with Rain 45 7 41 5 87 87 ENE 13 20 29.77 1008 4 6 0.10 2.54
11:53 pm 23:53 Cloudy with Rain 44 6.7 41 5 89 89 ENE 14 22 29.76 1008 4 6 0.10 2.54

Powered by AerisWeather